Wind_Speed
85 89 93 109 118 125 125 123 114 110 102 101 103 102 97 96 94 86 84 80 78 75 75 72 70 72 68 65 62 57 55 53 49 46 49 41 44 44 39 34 32 34 33 32 30
82 89 92 106 116 124 127 127 122 118 111 106 104 103 100 100 97 90 86 85 84 79 75 72 70 67 66 64 61 57 56 59 50 46 45 43 47 38 37 42 40 34 31 32 30
77 88 91 97 111 122 128 130 129 127 117 112 107 109 102 101 99 94 92 88 84 82 80 78 76 74 69 68 60 56 56 58 49 51 43 45 46 40 38 45 40 37 35 32 34
72 80 88 97 107 120 129 131 134 132 127 117 116 112 109 103 101 95 94 91 88 85 82 80 76 75 73 70 68 66 64 61 57 54 51 51 47 47 38 44 44 41 37 36 39
62 78 86 90 100 114 129 133 134 137 133 126 119 118 114 110 104 98 95 93 94 90 87 80 77 73 72 74 70 65 63 61 60 55 54 53 50 43 41 47 45 41 41 42 43
54 66 81 90 98 103 122 134 135 139 139 131 126 122 115 116 108 105 102 98 92 93 92 87 79 76 75 75 73 73 68 65 61 58 58 57 53 48 43 50 50 47 43 46 45
55 61 70 83 92 101 109 130 138 141 142 142 131 125 122 119 114 107 105 106 97 97 95 91 87 86 77 77 73 76 71 71 66 62 61 59 58 54 53 58 54 50 47 46 46
55 59 67 75 88 96 105 115 136 142 145 145 145 135 129 125 118 113 113 111 105 95 91 95 94 86 82 83 84 79 79 78 74 68 67 65 66 62 54 57 55 56 49 46 52
54 59 64 72 80 94 101 109 124 146 146 145 147 139 136 130 127 118 115 114 108 104 99 93 88 93 90 82 86 79 74 75 74 73 70 71 69 64 60 61 62 56 50 47 53
58 61 64 68 76 85 97 106 114 125 147 149 147 149 143 140 134 124 119 115 110 108 104 104 97 91 93 89 76 69 74 76 79 76 74 69 69 67 66 67 63 55 56 55 59
59 63 67 71 74 79 89 99 110 117 127 151 148 150 150 147 142 134 126 122 114 108 109 106 103 99 96 97 93 89 72 77 74 73 75 69 70 72 69 61 58 59 59 59 64
56 64 68 72 75 76 81 92 103 113 119 130 150 149 152 150 144 139 137 130 119 112 109 111 105 101 98 96 97 96 90 73 72 63 68 68 64 66 65 59 59 65 65 66 69
48 59 67 71 74 78 79 83 97 105 113 118 132 150 150 150 152 146 141 140 133 126 119 112 111 107 100 98 99 95 94 89 78 69 66 65 69 66 67 67 68 69 67 69 68
37 48 61 69 73 77 80 83 86 101 109 113 121 134 148 151 148 148 146 145 141 134 128 121 111 112 107 99 95 96 91 92 87 78 69 65 67 69 69 70 72 75 74 73 76
29 38 50 60 68 74 78 82 86 92 103 112 115 121 134 143 148 146 144 147 143 137 131 123 121 113 110 109 104 99 96 92 87 87 80 76 71 72 73 75 78 78 78 79 78
23 31 40 51 61 70 78 82 86 85 95 102 113 114 121 130 141 143 142 142 137 138 134 127 126 124 117 111 105 103 100 97 91 86 86 75 76 74 74 75 76 74 74 76 77
16 23 32 43 53 62 72 78 80 82 89 94 103 112 112 117 126 133 136 137 138 136 135 126 125 123 122 124 114 105 107 105 100 97 87 85 83 78 78 80 79 80 78 76 75
12 17 25 35 45 55 63 69 72 78 80 82 90 100 106 110 114 122 128 132 134 128 128 122 126 125 121 122 121 119 115 112 107 102 98 93 88 80 78 78 78 74 73 76 77
10 13 19 27 37 46 54 61 65 70 74 73 80 90 100 105 108 114 120 127 127 126 123 121 121 124 124 120 118 117 118 116 113 107 105 104 101 95 89 82 80 80 81 81 81
10 9 15 22 30 40 49 55 57 64 68 69 74 81 88 96 104 111 117 120 123 122 124 123 116 120 123 123 121 116 113 116 118 116 112 108 106 104 100 96 93 93 90 89 89
12 6 11 19 27 35 43 49 53 60 62 66 71 76 84 90 97 105 111 116 121 122 121 123 121 110 116 121 121 120 118 114 113 114 114 116 112 110 110 107 103 101 99 97 94
16 7 7 17 23 30 38 45 53 56 60 65 67 71 79 84 92 101 107 113 116 120 118 117 120 119 114 114 117 119 120 118 117 112 111 113 112 113 113 109 106 102 101 104 103
18 9 4 10 18 26 33 42 48 53 55 60 64 68 73 79 84 88 97 103 109 114 119 116 114 116 116 116 119 117 117 120 117 116 114 115 114 110 108 105 102 102 102 100 94
23 12 4 4 12 20 28 36 42 46 53 58 61 62 63 74 76 80 85 92 98 105 112 116 114 112 108 105 104 102 99 102 108 108 107 106 107 106 106 107 105 103 102 103 104
28 16 7 1 7 14 23 31 38 43 47 51 55 58 62 65 69 76 81 84 89 97 102 109 115 114 111 108 109 109 110 107 104 105 107 110 111 108 104 104 102 102 105 106 107
32 22 11 4 5 11 16 24 30 37 41 45 51 56 60 64 68 72 75 79 84 90 96 103 107 115 116 113 109 108 112 114 110 107 110 112 110 107 109 105 109 109 110 107 108
36 25 16 8 2 8 14 19 26 31 37 41 46 50 56 60 66 70 71 72 77 83 88 91 97 106 114 117 114 110 114 117 118 117 117 115 114 112 113 116 117 119 120 120 120
Wind_Direction
216 215 213 208 207 207 208 207 203 199 199 203 209 211 208 207 211 210 210 212 212 212 211 216 216 223 227 230 237 238 236 226 233 246 244 259 239 240 243 250 260 267 274 263 254
216 215 213 211 210 208 208 209 203 202 198 200 204 210 210 210 209 210 212 212 215 215 212 214 212 218 222 231 233 228 227 233 239 246 244 243 242 237 254 259 261 262 273 261 256
217 217 216 214 211 209 208 208 204 204 202 203 203 209 208 211 208 210 211 209 213 218 217 214 220 220 218 226 224 225 234 236 240 243 244 230 232 245 265 257 253 255 261 272 265
221 219 218 215 213 211 209 209 208 206 206 203 205 209 210 210 208 207 212 213 213 216 216 220 219 220 228 223 226 235 234 239 243 239 237 230 237 250 261 252 251 249 256 271 258
229 221 220 219 215 212 210 209 210 208 205 204 203 207 212 212 210 203 207 213 214 214 218 217 218 219 223 224 226 227 235 243 242 235 234 234 235 247 258 246 253 252 254 264 256
224 227 221 219 218 216 213 210 210 211 207 205 205 206 211 214 208 206 208 210 212 215 217 219 220 224 225 218 221 228 234 235 234 238 235 237 234 247 253 242 253 247 258 267 263
229 220 223 220 216 217 217 213 211 212 213 208 207 208 210 211 212 209 209 211 213 215 218 220 222 223 224 224 220 226 229 233 235 240 240 241 239 251 258 250 254 251 263 260 256
229 227 216 219 218 216 217 217 215 212 213 214 211 211 210 210 212 211 211 211 214 213 217 220 221 221 225 232 233 233 234 232 237 238 241 246 249 252 250 247 246 259 258 249 257
233 229 225 217 216 217 216 217 216 215 215 215 216 213 210 211 211 212 214 217 216 216 216 219 220 223 226 227 232 231 231 237 240 239 241 246 247 248 248 249 253 260 250 256 253
236 230 227 224 218 214 217 216 218 218 217 216 216 214 212 214 215 211 213 215 214 216 218 221 218 221 222 224 229 234 237 236 240 244 245 244 246 248 254 250 255 250 250 254 254
238 232 227 223 221 217 213 217 218 218 218 217 216 217 217 216 219 217 214 212 216 216 218 221 222 221 227 228 230 229 232 231 236 239 240 241 242 244 245 249 249 247 243 249 254
234 233 228 224 221 218 216 211 217 218 220 219 218 217 220 218 219 221 220 221 219 217 219 220 220 223 227 229 228 228 232 231 227 236 235 238 240 242 242 243 243 239 244 250 250
232 229 229 226 222 218 215 217 214 217 219 220 220 219 219 221 221 221 224 224 223 222 224 222 223 226 226 228 231 231 234 237 231 232 238 233 235 239 240 241 240 242 245 249 249
237 230 228 226 224 220 215 214 216 214 216 219 220 221 220 221 222 224 225 228 228 228 228 226 225 225 226 226 228 232 233 234 237 236 235 236 235 232 236 240 243 245 252 253 259
244 229 225 224 222 221 217 215 213 216 215 215 219 220 222 220 222 224 225 228 229 229 231 230 229 226 228 229 229 231 231 232 235 237 235 238 239 235 239 242 245 249 253 255 254
244 232 225 222 221 219 218 216 213 211 217 216 216 219 220 221 222 224 226 228 232 232 231 232 229 229 230 228 230 229 231 234 235 237 237 242 246 244 240 244 246 250 252 252 254
250 233 222 221 219 216 216 217 213 209 214 217 218 217 218 219 222 223 225 229 232 233 233 233 232 232 230 231 230 231 235 234 237 237 236 243 248 248 247 248 249 252 254 257 260
264 238 225 217 218 215 214 214 213 208 210 212 217 220 217 217 220 223 223 226 229 232 234 235 235 234 233 234 235 234 234 237 238 239 240 243 242 245 249 247 248 251 253 255 255
294 244 225 218 215 212 211 211 210 209 210 209 214 217 219 218 218 222 223 225 227 230 233 235 236 237 235 234 234 237 237 237 236 238 241 242 243 245 241 242 248 253 255 253 257
327 259 224 214 209 210 208 208 207 209 209 208 211 215 217 218 218 219 222 224 225 227 230 232 233 236 237 237 237 235 237 238 238 240 240 243 246 246 247 246 245 247 250 250 251
349 298 231 215 209 206 205 206 206 209 207 208 210 212 213 215 217 219 220 223 224 225 228 231 232 230 234 238 239 239 239 239 241 244 246 245 246 248 249 250 251 251 252 256 258
356 345 239 223 212 207 204 203 206 208 207 209 210 211 213 215 216 218 219 220 222 225 226 228 232 233 233 232 238 240 240 243 242 242 243 246 248 249 249 251 253 253 256 259 262
1 354 278 224 218 209 204 205 208 208 208 211 214 212 214 215 218 219 220 220 221 223 225 227 229 233 235 238 239 239 241 242 244 246 248 247 247 249 251 252 253 255 256 256 252
4 4 339 207 208 208 208 207 210 210 209 212 216 215 215 218 219 221 221 223 222 223 225 226 228 230 233 234 235 237 233 238 244 246 247 247 249 252 252 252 252 251 255 258 258
9 9 18 155 186 196 202 205 208 210 213 214 214 217 216 219 219 220 222 222 225 226 226 227 228 230 231 233 235 234 232 235 234 239 243 246 247 249 250 253 252 251 252 252 252
12 18 22 51 177 184 188 195 202 209 211 214 217 215 216 219 219 221 222 222 223 226 227 228 228 229 230 231 233 234 232 231 235 239 243 247 248 249 250 248 248 251 249 248 250
18 22 35 46 122 186 187 186 195 207 209 210 215 215 217 218 219 221 222 223 224 226 228 229 230 230 230 231 233 233 233 234 236 239 241 243 246 247 250 253 254 254 256 258 260
Height
10517 10526 10539 10550 10561 10575 10587 10603 10620 10633 10643 10655 10668 10678 10688 10702 10713 10724 10736 10743 10750 10758 10768 10773 10780 10786 10794 10802 10811 10819 10825 10832 10838 10842 10849 10853 10854 10858 10861 10863 10866 10868 10869 10870 10871
10504 10513 10523 10536 10547 10559 10572 10588 10605 10618 10631 10642 10654 10666 10676 10689 10702 10715 10726 10733 10740 10749 10758 10765 10771 10779 10788 10794 10803 10812 10816 10822 10832 10835 10841 10846 10849 10854 10857 10858 10862 10865 10865 10866 10867
10491 10500 10508 10520 10530 10542 10557 10571 10589 10602 10617 10629 10640 10652 10663 10677 10690 10705 10714 10722 10730 10738 10748 10756 10762 10771 10781 10788 10796 10806 10806 10814 10823 10827 10833 10839 10840 10847 10851 10850 10856 10859 10861 10861 10863
10477 10485 10495 10504 10516 10527 10541 10557 10571 10586 10602 10612 10627 10638 10651 10666 10676 10694 10703 10712 10722 10729 10734 10746 10755 10765 10773 10781 10789 10794 10797 10805 10813 10820 10825 10831 10835 10840 10843 10845 10847 10854 10854 10857 10858
10462 10468 10477 10488 10499 10511 10523 10538 10554 10569 10583 10598 10611 10623 10637 10651 10665 10680 10691 10701 10709 10716 10725 10736 10745 10755 10766 10773 10779 10785 10788 10793 10801 10812 10818 10822 10827 10832 10837 10839 10840 10847 10848 10850 10851
10443 10451 10458 10470 10481 10493 10505 10519 10534 10550 10564 10581 10594 10609 10622 10639 10648 10664 10676 10688 10697 10705 10715 10724 10737 10746 10754 10761 10769 10775 10780 10785 10794 10804 10811 10812 10818 10824 10828 10832 10833 10839 10841 10842 10845
10423 10428 10439 10449 10462 10477 10489 10502 10517 10532 10545 10562 10576 10593 10610 10621 10635 10651 10661 10675 10688 10695 10701 10713 10726 10734 10744 10749 10759 10764 10771 10776 10786 10797 10804 10805 10812 10819 10819 10824 10826 10831 10833 10834 10836
10405 10410 10417 10427 10441 10455 10469 10484 10499 10510 10524 10542 10559 10576 10593 10605 10620 10634 10647 10661 10671 10683 10690 10700 10712 10723 10734 10739 10748 10755 10762 10769 10777 10787 10795 10796 10802 10809 10810 10813 10818 10823 10824 10827 10828
10385 10391 10398 10406 10418 10432 10447 10463 10478 10493 10504 10521 10541 10558 10575 10589 10605 10618 10634 10644 10659 10671 10677 10687 10701 10712 10722 10731 10734 10745 10759 10764 10766 10774 10782 10785 10790 10799 10802 10803 10809 10814 10816 10818 10818
10362 10370 10378 10387 10396 10408 10424 10441 10455 10472 10488 10503 10519 10540 10563 10571 10584 10598 10615 10628 10643 10656 10663 10674 10689 10699 10709 10721 10735 10741 10750 10753 10756 10762 10767 10776 10780 10786 10793 10794 10798 10803 10808 10808 10807
10334 10344 10355 10364 10375 10388 10402 10419 10435 10451 10466 10486 10507 10525 10539 10555 10566 10583 10599 10613 10628 10643 10650 10660 10674 10691 10699 10711 10720 10728 10733 10741 10747 10750 10754 10764 10770 10775 10781 10785 10789 10793 10796 10796 10794
10310 10317 10329 10341 10354 10371 10384 10397 10411 10426 10442 10462 10484 10502 10514 10532 10547 10565 10580 10597 10614 10627 10638 10649 10662 10675 10685 10695 10705 10715 10723 10733 10739 10740 10743 10750 10756 10764 10769 10773 10777 10779 10780 10781 10782
10290 10296 10305 10319 10334 10349 10365 10379 10388 10407 10424 10443 10461 10479 10495 10512 10529 10548 10562 10578 10596 10609 10623 10635 10650 10659 10669 10681 10691 10703 10714 10721 10728 10731 10734 10740 10745 10751 10756 10761 10764 10766 10768 10770 10772
10274 10281 10287 10298 10312 10328 10344 10357 10375 10383 10401 10423 10438 10454 10475 10492 10512 10529 10544 10556 10575 10594 10605 10618 10633 10644 10655 10667 10676 10686 10699 10706 10715 10722 10724 10728 10735 10740 10745 10749 10751 10754 10756 10760 10761
10262 10266 10272 10282 10294 10307 10325 10338 10351 10368 10380 10397 10414 10434 10450 10479 10497 10510 10525 10541 10557 10576 10587 10608 10618 10631 10641 10652 10661 10674 10683 10691 10700 10709 10713 10715 10721 10730 10733 10737 10740 10744 10747 10748 10748
10253 10255 10262 10269 10277 10289 10303 10316 10329 10354 10366 10383 10396 10414 10433 10460 10476 10492 10510 10527 10538 10550 10565 10578 10596 10611 10624 10636 10646 10658 10667 10678 10685 10693 10698 10706 10708 10716 10720 10725 10726 10733 10732 10732 10734
10245 10247 10252 10257 10266 10276 10287 10299 10318 10339 10345 10365 10381 10395 10417 10441 10459 10476 10496 10506 10517 10530 10543 10561 10577 10593 10606 10616 10631 10646 10651 10660 10666 10675 10694 10696 10696 10701 10708 10713 10717 10718 10720 10722 10720
10239 10241 10244 10249 10256 10265 10278 10292 10309 10323 10338 10354 10371 10385 10402 10418 10439 10454 10471 10484 10496 10514 10528 10542 10552 10571 10588 10602 10620 10628 10635 10642 10654 10668 10680 10681 10683 10687 10696 10700 10703 10705 10706 10708 10707
10237 10236 10240 10245 10250 10260 10272 10286 10300 10316 10329 10346 10359 10371 10385 10402 10421 10436 10452 10465 10483 10500 10511 10526 10534 10552 10568 10584 10597 10607 10620 10628 10640 10650 10656 10663 10666 10678 10682 10687 10691 10691 10692 10692 10691
10237 10235 10237 10241 10247 10254 10265 10279 10294 10305 10319 10336 10347 10358 10374 10388 10402 10415 10432 10448 10467 10482 10493 10506 10520 10531 10549 10562 10574 10593 10597 10609 10620 10629 10637 10645 10649 10660 10665 10671 10675 10677 10678 10676 10675
10238 10237 10237 10238 10244 10250 10261 10274 10287 10295 10312 10323 10332 10345 10355 10372 10386 10398 10414 10430 10448 10463 10477 10493 10505 10518 10532 10544 10560 10571 10583 10593 10603 10610 10620 10628 10631 10641 10644 10652 10658 10659 10659 10661 10663
10240 10238 10238 10239 10244 10249 10257 10268 10276 10288 10300 10310 10324 10335 10347 10359 10369 10381 10395 10409 10432 10449 10464 10478 10489 10504 10517 10531 10538 10551 10562 10573 10581 10593 10601 10608 10611 10617 10628 10639 10640 10641 10643 10641 10640
10244 10241 10240 10242 10245 10250 10256 10262 10271 10282 10295 10304 10312 10325 10336 10350 10359 10376 10387 10401 10417 10432 10446 10461 10475 10487 10498 10507 10524 10537 10546 10559 10566 10575 10585 10591 10597 10599 10609 10619 10620 10618 10619 10621 10621
10249 10245 10243 10244 10247 10251 10255 10261 10268 10279 10289 10297 10306 10319 10335 10339 10356 10369 10381 10393 10407 10419 10432 10445 10461 10473 10488 10501 10510 10520 10532 10540 10549 10558 10565 10570 10574 10582 10589 10595 10598 10599 10600 10601 10605
10255 10249 10247 10247 10248 10251 10256 10262 10266 10273 10282 10293 10304 10313 10325 10333 10347 10357 10369 10384 10396 10408 10420 10431 10446 10458 10469 10479 10485 10498 10508 10517 10526 10536 10544 10548 10553 10563 10571 10574 10577 10577 10577 10582 10586
10262 10255 10250 10249 10249 10250 10255 10260 10266 10271 10279 10288 10295 10304 10314 10323 10336 10345 10358 10371 10383 10393 10405 10417 10432 10443 10451 10460 10469 10481 10493 10506 10516 10523 10527 10529 10539 10549 10553 10557 10558 10561 10558 10557 10560
10273 10262 10256 10252 10251 10251 10253 10258 10262 10266 10273 10281 10288 10297 10305 10315 10325 10336 10348 10359 10371 10380 10392 10406 10419 10426 10437 10444 10453 10464 10481 10488 10494 10499 10504 10511 10520 10528 10533 10534 10534 10534 10538 10540 10543